Regional Weather Roundup
Issued by NWS

Home | Current Version | Previous Version | Graphics & Text | Print | Product List | Glossary On
Versions: 1 2 3 4 5 6 7 8 9 10 11 12 13 14 15 16 17 18 19 20 21 22 23 24 25 26 27 28 29 30 31 32 33 34 35 36 37 38 39 40 41 42 43 44 45 46 47 48 49 50
000
ASUS43 KLOT 201810
RWRIL

ILLINOIS REGIONAL WEATHER ROUNDUP
NATIONAL WEATHER SERVICE CHICAGO/ROMEOVILLE IL
100 PM CDT SAT SEP 20 2014

NOTE: "FAIR" INDICATES FEW OR NO CLOUDS BELOW 12,000 FEET WITH NO
SIGNIFICANT WEATHER AND/OR OBSTRUCTIONS TO VISIBILITY.

* THESE STATIONS ARE NOT UNDER NWS QUALITY CONTROL. THEY ALSO MAY NOT
  REPORT WEATHER SUCH AS PRECIPITATION OR FOG.

ILZ001-002-007-009-015-016-024-201900-
NORTHWEST ILLINOIS

CITY           SKY/WX    TMP DP  RH WIND       PRES   REMARKS
MOLINE         CLOUDY    78  68  71 W17G23    29.88S HX  80
6HR MIN TEMP:  63; 6HR MAX TEMP:  79; 6HR PCP: TRACE;

STERLING*      CLOUDY    73  66  78 W10       29.87F
SAVANNA*       PTSUNNY   76  64  67 SW9       29.86F
$$

ILZ003-004-008-010-011-017-018-201900-
NORTH CENTRAL ILLINOIS

CITY           SKY/WX    TMP DP  RH WIND       PRES   REMARKS
ROCKFORD       CLOUDY    78  64  61 SW10G18   29.86F HX  80
6HR MIN TEMP:  63; 6HR MAX TEMP:  78;

FREEPORT*      PTSUNNY   78  67  69 W16G24    29.86F HX  80
ROCHELLE*      PTSUNNY   73  64  72 W9        29.88S THUNDER
DE KALB*       CLOUDY    71  64  79 W7        29.89R
PERU*          PTSUNNY   76  66  71 W14       29.89R THUNDER
$$

ILZ005-006-012>014-019>023-201900-
NORTHEAST ILLINOIS

CITY           SKY/WX    TMP DP  RH WIND       PRES   REMARKS
CHICAGO-OHARE  PTSUNNY   76  64  66 SW12      29.85R
6HR MIN TEMP:  63; 6HR MAX TEMP:  77;

CHICAGO-MIDWAY CLOUDY    78  66  66 SW13G22   29.86R HX  80
6HR MIN TEMP:  63; 6HR MAX TEMP:  80;

AURORA         CLOUDY    75  64  68 SW8       29.86S
6HR MIN TEMP:  56; 6HR MAX TEMP:  77;

LANSING*       MOSUNNY   79  66  64 SW15G25   29.86F HX  81
JOLIET*        PTSUNNY   78  64  61 SW12G20   29.86F HX  80
WAUKEGAN       PTSUNNY   72  63  73 SW14G23   29.83R
6HR MIN TEMP:  63; 6HR MAX TEMP:  75;

DUPAGE AIRPORT PTSUNNY   74  64  71 SW14      29.86R
6HR MIN TEMP:  59; 6HR MAX TEMP:  78;

KANKAKEE*      PTSUNNY   80  68  66 SW20G26   29.89S HX  83
WHEELING       PTSUNNY   76  64  66 SW9       29.85S
6HR MIN TEMP:  64; 6HR MAX TEMP:  76;

MORRIS*        PTSUNNY   81  67  63 SW12      29.85F HX  83
ROMEOVILLE*    PTSUNNY   79  64  60 SW13G18   29.86F HX  81
NORTHERLY ISL    N/A     77  63  61 S13         N/A
$$

LMZ740>746-201900-
SOUTHERN LAKE MICHIGAN

STATION/POSITION SKY/WX   TEMP    WIND        PRES    VSBY  WAVE
                          AIR SEA DIR/SP/G                  HT/PER
                          (F)     (DEG/KT/KT) (MB)    (MI)  (FT/S)
SOUTHERN BUOY              65 63  200/ 16/ 19 1009.3F         4/ 6
WAUKEGAN HARBOR            73     230/ 12/ 23   N/A
HARRISON CRIB              75     230/ 20/ 25   N/A
BURNHAM HARBOR             77     190/  9/ 17   N/A
CALUMET HARBOR             77     200/ 15/ 21 1009.6F
MICHIGAN CITY              75     190/ 19/ 24   N/A
MICHIGAN CITY 6N           73 65  210/ 17/ 25   N/A           3/ 4
ST. JOSEPH                 69 65  190/  8/ 12   N/A           3/ 4
$$

ILZ025>027-034>036-040-047-049-050-058-095>099-201900-
WEST-CENTRAL ILLINOIS

CITY           SKY/WX    TMP DP  RH WIND       PRES   REMARKS
QUINCY         PTSUNNY   78  69  73 SW14      29.93F HX  80
GALESBURG*     CLOUDY    78  69  72 SW10G18   29.91S HX  81
MACOMB*        CLOUDY    78  67  69 W16G23    29.93F HX  81
JACKSONVILLE*  CLOUDY    83  70  63 SW12G20   29.93F HX  87
PITTSFIELD*    CLOUDY    81  69  67 SW12G20   29.95R HX  84
$$

ILZ028>032-037-038-041>044-048-051>054-059>061-201900-
CENTRAL ILLINOIS

CITY           SKY/WX    TMP DP  RH WIND       PRES   REMARKS
PONTIAC        PTSUNNY   82  68  61 SW16G22   29.87F HX  85
DECATUR        MOSUNNY   83  68  60 SW18G26   29.94F HX  86
PEORIA         PTSUNNY   80  67  64 W14       29.90R HX  82
6HR MIN TEMP:  61; 6HR MAX TEMP:  80;

LACON*         MOSUNNY   76  66  73 SW9       29.88R
LINCOLN*       PTSUNNY   82  68  60 S13G20    29.87F HX  85
SPRINGFIELD    PTSUNNY   82  69  64 SW14G21   29.92F HX  85
6HR MIN TEMP:  64; 6HR MAX TEMP:  82;

TAYLORVILLE    MOSUNNY   82  68  61 SW15G22   29.95F HX  85
$$

ILZ033-039-045-046-055>057-062-063-201900-
EAST-CENTRAL ILLINOIS

CITY           SKY/WX    TMP DP  RH WIND       PRES   REMARKS
CHAMPAIGN      PTSUNNY   82  67  60 S20G29    29.94F HX  84
DANVILLE*      CLOUDY    80  65  60 SW15G23   29.92S HAZE    HX  82
RANTOUL*       CLOUDY    83  64  51 SW20      29.92F HX  85
MATTOON        PTSUNNY   78  68  71 S10G21    29.97F HX  80
PARIS*         PTSUNNY   81  67  63 S14G20    29.97F HX  83
$$

ILZ079-100>102-201900-
SOUTHWEST ILLINOIS

CITY           SKY/WX    TMP DP  RH WIND       PRES   REMARKS
BELLEVILLE     PTSUNNY   83  70  65 VRB5      29.98F HX  87
CAHOKIA*       PTSUNNY   85  69  58 VRB7      29.98F HX  89
SPARTA*        RAIN      82  69  63 W5        30.02F HX  85
$$

ILZ064>066-069>071-074>076-080>082-084>086-088>090-092>094-201900-
SOUTH-CENTRAL ILLINOIS

CITY           SKY/WX    TMP DP  RH WIND       PRES   REMARKS
CARBONDALE     MOSUNNY   82  69  64 SW10      30.03F HX  85
6HR MIN TEMP:  59; 6HR MAX TEMP:  83;

CAIRO*         MOSUNNY   85  68  56 S8        30.04F HX  88
EFFINGHAM*     PTSUNNY   80  64  57 SW14G22   29.99F HX  82
MARION         PTSUNNY   84  68  58 SW12      30.04F HX  87
MT. VERNON     PTSUNNY   82  70  65 SW14G21   30.03F HX  86
CENTRALIA*     PTSUNNY   81  67  61 SW10      30.01F HX  83
SALEM*         PTSUNNY   82  71  70 SW12      30.01F HX  86
METROPOLIS*    MOSUNNY   85  68  57 SW7       30.04F HX  88
$$

ILZ067-068-072-073-078-083-087-091-201900-
SOUTHEAST ILLINOIS

CITY           SKY/WX    TMP DP  RH WIND       PRES   REMARKS
LAWRENCEVILLE  PTSUNNY   82  68  62 W15       30.01F HX  85
FLORA*         PTSUNNY   81  66  60 SW13G20   30.01F HX  83
FAIRFIELD*     MOSUNNY  N/A N/A N/A SW7       30.02F
HARRISBURG*    PTSUNNY   82  66  58 SW9       30.05S HX  83
ROBINSON*      PTSUNNY   82  69  65 SW16      30.01F HX  85
CARMI*         PTSUNNY   83  69  62 SW10G18   30.03S HX  86
$$

ABBREVIATIONS USED IN REMARKS
   TC - TEMPERATURE IN CELSIUS
  WCI - WIND CHILL INDEX
   HX - HEAT INDEX
  VSB - VISIBILITY
$$



USA.gov is the U.S. government's official web portal to all federal, state and local government web resources and services.